Showing default

ZHUHAI-1 03D, 44538

Orbit data source: Space-Track

ZHUHAI-1 03D, 44538 is a payload satellite owned by Zhuhai Orbita (CN) in SSO that was launched on Thu, 19 Sep 2019 UTC via a CHANG ZHENG 11 launch vehicle from the Jiuquan Satellite Launch Center, China (JSC). Payload-class satellites include a variety of spacecraft equipped with specific instruments for various scientific and technological missions. These include communications satellites like Starlink; space stations such as the ISS; scientific satellites like the Hubble; Earth observation satellites from companies like Planet Labs, Umbra, and HawkEye 360; GPS; miniature CubeSats for education and research; and military/defense satellites.

Loading next visibility...
Identifier
44538, 2019-060E
Orbit
SSO
Last TLE update
7 hours ago
Origin
Manufacturer
Harbin
Mission
Operational Commercial Imaging
Bus & Motor
OHS-1, Unknown motor
Mass
69 kg wet, 69 kg dry
Launch date (UTC)
2019-09-19 (6 years ago)
Launch vehicle
CHANG ZHENG 11
Launch site
Jiuquan Satellite Launch Center, China (JSC)
Object type
Payload
Rocket body
Debris
Shape & HBR
Box, Unknown HBR
Radar Cross Section
0.280 m², Medium (>0.1 m² and < 1m²)

Expand to show TLE details & history

TLE from 7 hours ago
0 ZHUHAI-1 03D
1 44538U 19060E   25194.21458212  .00012272  00000-0  41167-3 0  9992
2 44538  97.5049 329.9190 0013301  86.5754 273.7008 15.30952062323925
Epoch: 2025-07-13T05:08Z
TLE epoch observation values (Epoch: 2025-07-13T05:08:59.895Z)
Latitude
-0°
Longitude
-38.67157°
Altitude
475.497 km
Speed
7.628 km/s
True Right ascension
21h 59m 40s
True Declination
0° 00' 00"
Sunlit
Object was in full shadow at epoch
Visualization orbit readout
Latitude
66.13444°
Longitude
158.83842°
Altitude
476.294 km
Speed
7.638 km/s
Apparent Right ascension
11h 55m 11s
Apparent Declination
15° 58' 51"
Sunlit
Object is in daylight
Visualization observer readout
Local Sidereal Time
00:20:53
Azimuth
7.435° NNE
Elevation
-33.783°
Doppler factor
1
Orbital elements
Apogee altitude
479.035 km
Perigee altitude
460.817 km
Semi-major axis
6,848.063 km
Eccentricity
0.00133
Inclination
97.5049°
RAAN
329.919°
Arg. of periapsis
86.5754°
True anomaly
Unknown
Mean anomaly
273.7008°
Eccentric anomaly
Unknown
Mean motion
3.82994 °/min
Orbital period
94 mins
BSTAR
0.00041167
Loading maneuver chart data...
Loading SW <> Apogee altitude chart data...
Loading historical data...
Loading historical data...
Loading historical data...
Loading historical data...
Loading historical data...
Loading historical data...
Loading historical data...

ZHUHAI-1 03D Visibility forecast

Observer location: undefined°, undefined°

Span
Click to sort rows by Start time (UTC) header in descending order
Start Az.
Max El. time (UTC)
Max El. Az.
Max El.
End time (UTC)
End Az.
6 mins2025-07-13 21:23:52.836Z35.113° NE2025-07-13 21:26:52.836Z97.05° ESE26.236°2025-07-13 21:29:52.836Z159.419° S
4 mins2025-07-14 09:31:52.836Z208.16° SW2025-07-14 09:33:52.836Z283.016° WNW31.231°2025-07-14 09:35:52.836Z326.403° NNW
|